Regional Weather Roundup
Issued by NWS

Home | Current Version | Previous Version | Text Only | Print | Product List | Glossary Off
Versions: 1 2 3 4 5 6 7 8 9 10 11 12 13 14 15 16 17 18 19 20 21 22 23 24 25 26 27 28 29 30 31 32 33 34 35 36 37 38 39 40 41 42 43 44 45 46 47 48 49 50

000
ASUS45 KBOU 040507
RWRCO

WEATHER ROUNDUP FOR COLORADO
NATIONAL WEATHER SERVICE DENVER/BOULDER CO
1100 PM MDT THU SEP 03 2015

NOTE: "FAIR" INDICATES FEW OR NO CLOUDS BELOW 12000 FEET WITH NO
SIGNIFICANT WEATHER AND/OR OBSTRUCTIONS TO VISIBILITY.

COZ001>005-013-030-031-040600-
...NORTHWEST COLORADO...

CITY           SKY/WX    TMP DP  RH WIND       PRES   REMARKS
CRAIG          CLEAR     60  47  61 E10       30.06S
HAYDEN         CLEAR     57  43  58 E12       30.09F
MEEKER         CLEAR     59  47  64 E7        30.07S
MOUNT WERNER   NOT AVBL
STEAMBOAT SPGS CLEAR     50  45  81 NW3       30.13S
WALDEN         CLEAR     43  39  87 E5        30.21F
$$

COZ006>008-011-040600-
...WEST CENTRAL VALLEYS...

CITY           SKY/WX    TMP DP  RH WIND       PRES   REMARKS
GRAND JUNCTION PTCLDY    70  50  49 E12       29.95S
MONTROSE       CLEAR     63  52  67 SE12      30.07S
EAGLE          CLEAR     54  52  94 SE3       30.17S
RIFLE          MOCLDY    60  53  77 SE5       30.03S
DELTA          CLEAR     66  51  57 NE7       30.02S
NUCLA          CLEAR     66  36  32 E10       30.09S
$$

COZ017>023-064>068-040600-
...SOUTHWEST COLORADO...

CITY           SKY/WX    TMP DP  RH WIND       PRES   REMARKS
DURANGO        MOCLDY    59  41  51 VRB5      30.13F
CORTEZ         PTCLDY    61  45  55 N7        30.07S
PAGOSA SPRINGS MOCLDY    55  44  68 CALM      30.22F
TELLURIDE      PTCLDY    53  43  71 E3        30.33S
WOLF CREEK PAS NOT AVBL
$$

COZ009-010-012-014-032>034-037-058>063-040600-
...CENTRAL COLORADO...

CITY           SKY/WX    TMP DP  RH WIND       PRES   REMARKS
ASPEN          CLEAR     49  45  86 SW3       30.19F
BUENA VISTA    CLEAR     51  45  79 NW5       30.22S
COPPER MTN     CLEAR     46  36  66 W10G23    30.47F
BERTHOUD PASS  FAIR      37  28  70 W18G28    30.50S
COTTONWOOD PAS CLEAR     55  37  50 CALM      30.35S
GUNNISON       CLEAR     52  46  82 N6        30.25R
KREMMLING        N/A     50  46  87 CALM      30.22S FOG
LEADVILLE      CLEAR     40  39  97 N3        30.33F
MONARCH PASS   PTCLDY    43  36  75 W18       30.58S
SALIDA         CLEAR     58  45  62 W10       30.26F
SUNLIGHT       PTCLDY    48  43  81 CALM      30.42S
WILKERSON PASS CLEAR     46  37  71 W5        30.45S
$$

COZ069>075-040600-
...SAN LUIS VALLEY/SANGRE DE CRISTO MOUNTAINS...

CITY           SKY/WX    TMP DP  RH WIND       PRES   REMARKS
ALAMOSA        CLOUDY    53  46  77 S5        30.21S
LA VETA PASS   PTCLDY    50  37  62 MISG      30.37R
SAGUACHE       PTCLDY    50  45  81 NW6       30.24S
$$

COZ035-036-038>040-040600-
...NORTHERN COLORADO FRONT RANGE...

CITY           SKY/WX    TMP DP  RH WIND       PRES   REMARKS
DENVER INTL AP PTCLDY    60  54  80 SW8       30.00F
DMNS CITY PARK   N/A     61  56  85 SE7       30.00S
AURORA         PTCLDY    58  55  89 S9        30.03F
FRONT RANGE AP NOT AVBL
ERIE MUNI ARPT CLEAR     57  55  90 CALM      29.98F
BOULDER MUN AP CLEAR     61  50  67 CALM      29.99F
CENTENNIAL     PTCLDY    59  54  83 S9        30.03F
BROOMFIELD     NOT AVBL
FORT COLLINS   CLEAR     63  46  55 CALM      29.99F
LONGMONT       CLEAR     59  51  76 CALM      30.00S
$$

COZ041-046-047-076>085-087-088-040600-
...PIKES PEAK/PALMER DIVIDE AND SOUTHERN FOOTHILLS...

CITY           SKY/WX    TMP DP  RH WIND       PRES   REMARKS
COLO. SPRINGS  PTCLDY    61  52  72 W6        30.06F
A. F. ACADEMY  PTCLDY    56  50  79 N10       30.07F
ELLICOTT       PTCLDY     1  32 100 N5        30.04S WCI  -9
FALCON         PTCLDY    60  47  63 MISG      30.10F
FORT CARSON    PTCLDY    62  53  73 N9        30.02F
LIMON          MOCLDY    62  53  72 NW8       30.00S
MONUMENT HILL  CLEAR     54  50  87 W6        30.12F
TRINIDAD       PTCLDY    64  46  52 SW7       30.05S
$$

COZ042>045-048>051-090-091-040600-
...NORTHEAST COLORADO...

CITY           SKY/WX    TMP DP  RH WIND       PRES   REMARKS
GREELEY ARPT   CLEAR     57  50  77 S6        29.98S
AKRON          MOCLDY    64  51  62 N6        29.95F
BURLINGTON     PTCLDY    68  53  58 NW9       29.92R
WRAY           CLOUDY    67  61  80 NW7       29.86F
STERLING       MOCLDY    66  55  68 S6        29.91S
HOLYOKE        LGT RAIN  70  59  68 N12       29.87F
FORT MORGAN    MOCLDY    60  53  77 W6        29.95F
$$

COZ086-089-092>099-040600-
...SOUTHEAST COLORADO...

CITY           SKY/WX    TMP DP  RH WIND       PRES   REMARKS
PUEBLO         PTCLDY    69  53  56 NW5       29.95S
LA JUNTA       CLOUDY    77  51  40 N5        29.92R
LAMAR          PTCLDY    74  53  48 NE7       29.84R
SPRINGFIELD      N/A     77  48  35 SW9G24    29.93S
$$



USA.gov is the U.S. government's official web portal to all federal, state and local government web resources and services.